Location: Saint Mary
(48.7436°N, 113.4291°W)
Time: 11:32:51
(UTC+00:00)

ARIANE 6 FM1 Upper Stage - Pass Details

Date: 09 December 2025
Orbit: 522 x 610 km, 62.0° (Epoch: 20 January)

Event Time Altitude Azimuth Distance (km) Brightness Sun altitude
Rises 14:28:36 0° 174° (S) 2,687 6.6 -7.4°
Reaches altitude 10° 14:31:41 10° 149° (SSE) 1,785 6.3 -7.0°
Maximum altitude 14:33:48 14° 116° (ESE) 1,535 6.5 -6.6°
Drops below altitude 10° 14:35:55 10° 84° (E) 1,775 6.2 -6.3°
Sets 14:38:57 0° 59° (ENE) 2,661 6.6 -5.9°
